Location: Jaworzyna Śląska
(50.9128°N, 16.4318°E)
Time: 19:14:29
(UTC+01:00)

ISS - Visible Passes

Search period start: 22 February 2018 00:00
Search period end: 04 March 2018 00:00
Orbit: 402 x 407 km, 51.6° (Epoch: 23 February)

Date Brightness Start Highest point End Pass type
(mag) Time Alt. Az. Time Alt. Az. Time Alt. Az.
27 Feb -0.8 05:34:40 10° SSE 05:36:01 12° SE 05:37:21 10° ESE visible
01 Mar -1.6 05:24:57 10° SSW 05:27:34 22° SE 05:30:11 10° E visible
02 Mar -1.2 04:34:05 12° SSE 04:35:28 14° SE 04:37:19 10° ESE visible
03 Mar -2.6 05:16:44 14° SW 05:19:11 38° SSE 05:22:15 10° E visible
